South St. Paul, MN

7:57 AM CDT on May 26, 2018 (GMT -0500)
South Saint Paul Municipal-Fleming

Weather History for KSGS - November, 2013

Change the Weather History Date:

Thursday, November 7, 2013

  Actual Average (KSTP) Record (KSTP)
Temperature  
Mean Temperature 32 °F -  
Max Temperature 38 °F 44 °F 66 °F (2001)
Min Temperature 27 °F 29 °F 14 °F (2003)
Degree Days  
Heating Degree Days 32    
Moisture  
Dew Point 29 °F    
Average Humidity 85    
Maximum Humidity 92    
Minimum Humidity 73    
Precipitation  
Precipitation 0.00 in - - ()
Sea Level Pressure  
Sea Level Pressure 30.20 in    
Wind  
Wind Speed 4 mph (West)    
Max Wind Speed 10 mph    
Max Gust Speed -    
Visibility 7 miles    
Events      
Averages and records for this station are not official NWS values.
T = Trace of Precipitation, MM = Missing Value Source: NWS Daily Summary

Daily Weather History Graph

Daily Weather History Graph

Search for Another Location

Airport or City:

Astronomy

Nov. 07, 2013 Rise Set
Actual Time 6:58 AM CST 4:52 PM CST
Civil Twilight 6:27 AM CST 5:23 PM CST
Nautical Twilight 5:52 AM CST 5:58 PM CST
Astronomical Twilight 5:18 AM CST 6:32 PM CST
Moon 11:10 AM CST (11/7) 9:02 PM CST (11/7)
Length of Visible Light 10h 55m
Length of Day
9h 53m
Waxing Crescent, 23% of the Moon is Illuminated
Nov 7
Waxing Crescent
Nov 9
First Quarter
Nov 17
Full
Nov 25
Last Quarter
Dec 2
New

Hourly Weather History & Observations

Time (CST) Temp. Windchill Dew Point Humidity Pressure Visibility Wind Dir Wind Speed Gust Speed Precip Events Conditions
12:12 AM 33.8 °F 29.6 °F 26.8 °F 75% 30.16 in 10.0 mi West 4.6 mph - N/A   Mostly Cloudy
12:32 AM 33.3 °F 27.1 °F 26.6 °F 77% 30.16 in 10.0 mi West 6.9 mph - N/A   Scattered Clouds
12:52 AM 32.5 °F 25.5 °F 26.6 °F 79% 30.17 in 10.0 mi WNW 8.1 mph - N/A   Mostly Cloudy
1:12 AM 32.4 °F 27.9 °F 26.6 °F 79% 30.17 in 10.0 mi West 4.6 mph - N/A   Overcast
1:32 AM 32.0 °F 26.4 °F 26.6 °F 80% 30.17 in 10.0 mi West 5.8 mph - N/A   Overcast
1:52 AM 32.0 °F - 26.6 °F 80% 30.17 in 10.0 mi Calm Calm - N/A   Scattered Clouds
2:12 AM 31.6 °F 28.3 °F 26.6 °F 82% 30.17 in 10.0 mi West 3.5 mph - N/A   Clear
2:32 AM 31.1 °F 27.7 °F 26.6 °F 83% 30.17 in 10.0 mi West 3.5 mph - N/A   Clear
2:52 AM 31.1 °F 26.4 °F 27.3 °F 86% 30.17 in 10.0 mi West 4.6 mph - N/A   Scattered Clouds
3:12 AM 31.1 °F 27.7 °F 27.5 °F 87% 30.16 in 10.0 mi West 3.5 mph - N/A   Mostly Cloudy
3:32 AM 31.5 °F 26.8 °F 28.0 °F 87% 30.16 in 10.0 mi West 4.6 mph - N/A   Mostly Cloudy
3:52 AM 31.6 °F 27.0 °F 28.2 °F 87% 30.16 in 10.0 mi West 4.6 mph - N/A   Scattered Clouds
4:12 AM 31.8 °F 27.3 °F 28.4 °F 87% 30.17 in 10.0 mi West 4.6 mph - N/A   Mostly Cloudy
4:32 AM 31.8 °F - 28.8 °F 88% 30.16 in 10.0 mi Calm Calm - N/A   Overcast
4:52 AM 32.0 °F 28.7 °F 28.9 °F 88% 30.17 in 10.0 mi WNW 3.5 mph - N/A   Overcast
5:12 AM 32.0 °F 28.7 °F 29.1 °F 89% 30.18 in 10.0 mi West 3.5 mph - N/A   Overcast
5:32 AM 32.0 °F - 29.1 °F 89% 30.18 in 7.0 mi Calm Calm - N/A   Overcast
5:52 AM 32.0 °F - 28.9 °F 88% 30.19 in 7.0 mi Calm Calm - N/A   Overcast
6:12 AM 32.0 °F 26.4 °F 29.1 °F 89% 30.19 in 7.0 mi WSW 5.8 mph - N/A   Overcast
6:32 AM 32.0 °F - 29.1 °F 89% 30.19 in 7.0 mi Calm Calm - N/A   Mostly Cloudy
6:52 AM 32.0 °F 28.7 °F 29.3 °F 90% 30.20 in 7.0 mi West 3.5 mph - N/A   Overcast
7:12 AM 32.0 °F 27.5 °F 29.3 °F 90% 30.19 in 7.0 mi SW 4.6 mph - N/A   Overcast
7:32 AM 32.0 °F 24.8 °F 29.3 °F 90% 30.20 in 2.5 mi WSW 8.1 mph - N/A   Overcast
7:52 AM 32.0 °F 26.4 °F 29.7 °F 91% 30.20 in 2.5 mi SW 5.8 mph - N/A   Overcast
8:12 AM 32.0 °F 26.4 °F 29.8 °F 92% 30.21 in 2.5 mi SW 5.8 mph - N/A   Overcast
8:32 AM 32.0 °F 28.7 °F 29.7 °F 91% 30.22 in 2.0 mi SW 3.5 mph - N/A   Overcast
8:52 AM 32.0 °F 28.7 °F 30.0 °F 92% 30.22 in 2.0 mi SSW 3.5 mph - N/A   Overcast
9:12 AM 32.2 °F - 30.0 °F 92% 30.22 in 2.5 mi Calm Calm - N/A   Overcast
9:32 AM 32.5 °F - 30.0 °F 90% 30.22 in 2.5 mi Calm Calm - N/A   Overcast
9:52 AM 32.9 °F - 30.2 °F 90% 30.23 in 3.0 mi Calm Calm - N/A   Overcast
10:12 AM 33.6 °F 29.4 °F 30.6 °F 89% 30.22 in 3.0 mi SSW 4.6 mph - N/A   Overcast
10:32 AM 34.7 °F 30.6 °F 30.0 °F 83% 30.23 in 4.0 mi SW 4.6 mph - N/A   Haze
10:52 AM 35.6 °F 31.7 °F 30.4 °F 81% 30.23 in 7.0 mi WSW 4.6 mph - N/A   Mostly Cloudy
11:12 AM 35.1 °F 30.1 °F 30.2 °F 82% 30.23 in 5.0 mi West 5.8 mph - N/A   Haze
11:32 AM 34.7 °F 27.5 °F 30.4 °F 84% 30.23 in 5.0 mi West 9.2 mph - N/A   Haze
11:52 AM 34.5 °F 26.7 °F 29.8 °F 83% 30.24 in 7.0 mi West 10.4 mph - N/A   Overcast
12:12 PM 33.8 °F 28.6 °F 29.5 °F 84% 30.22 in 10.0 mi West 5.8 mph - N/A   Overcast
12:32 PM 34.9 °F 29.9 °F 30.2 °F 83% 30.20 in 10.0 mi WSW 5.8 mph - N/A   Overcast
12:52 PM 35.6 °F 29.9 °F 30.2 °F 81% 30.21 in 10.0 mi WSW 6.9 mph - N/A   Overcast
1:12 PM 36.0 °F 28.5 °F 30.0 °F 79% 30.22 in 10.0 mi West 10.4 mph - N/A   Overcast
1:32 PM 37.0 °F 30.4 °F 30.6 °F 77% 30.20 in 10.0 mi NW 9.2 mph - N/A   Overcast
1:52 PM 37.6 °F 32.3 °F 30.0 °F 74% 30.20 in 10.0 mi West 6.9 mph - N/A   Mostly Cloudy
2:12 PM 37.6 °F 31.6 °F 30.4 °F 75% 30.20 in 10.0 mi West 8.1 mph - N/A   Mostly Cloudy
2:32 PM 38.5 °F 33.4 °F 30.7 °F 74% 30.20 in 10.0 mi West 6.9 mph - N/A   Mostly Cloudy
2:52 PM 38.5 °F 32.1 °F 30.6 °F 73% 30.20 in 10.0 mi West 9.2 mph - N/A   Overcast
3:12 PM 38.5 °F 34.1 °F 30.9 °F 74% 30.20 in 10.0 mi West 5.8 mph - N/A   Overcast
3:32 PM 38.3 °F 31.9 °F 30.7 °F 74% 30.21 in 10.0 mi West 9.2 mph - N/A   Mostly Cloudy
3:52 PM 37.4 °F 32.1 °F 30.2 °F 75% 30.20 in 10.0 mi West 6.9 mph - N/A   Mostly Cloudy
4:12 PM 37.4 °F 31.4 °F 29.8 °F 74% 30.20 in 10.0 mi West 8.1 mph - N/A   Mostly Cloudy
4:32 PM 36.9 °F 34.3 °F 29.8 °F 76% 30.21 in 10.0 mi West 3.5 mph - N/A   Clear
4:52 PM 36.5 °F 31.0 °F 30.2 °F 78% 30.21 in 10.0 mi WSW 6.9 mph - N/A   Scattered Clouds
5:12 PM 35.6 °F 31.7 °F 30.2 °F 81% 30.20 in 10.0 mi WSW 4.6 mph - N/A   Scattered Clouds
5:32 PM 34.9 °F 32.0 °F 29.8 °F 82% 30.20 in 10.0 mi SW 3.5 mph - N/A   Clear
5:52 PM 34.7 °F - 30.0 °F 83% 30.21 in 10.0 mi Calm Calm - N/A   Clear
6:12 PM 34.2 °F - 29.7 °F 84% 30.20 in 7.0 mi Calm Calm - N/A   Clear
6:32 PM 33.6 °F - 29.5 °F 85% 30.21 in 7.0 mi Calm Calm - N/A   Clear
6:52 PM 33.3 °F - 29.5 °F 86% 30.21 in 7.0 mi Calm Calm - N/A   Clear
7:12 PM 32.9 °F - 29.3 °F 87% 30.20 in 7.0 mi Calm Calm - N/A   Clear
7:32 PM 31.8 °F - 28.6 °F 88% 30.20 in 7.0 mi Calm Calm - N/A   Clear
7:52 PM 31.5 °F - 28.6 °F 89% 30.20 in 5.0 mi Calm Calm - N/A   Clear
8:12 PM 31.1 °F - 28.4 °F 90% 30.20 in 5.0 mi Calm Calm - N/A   Clear
8:32 PM 30.4 °F - 27.5 °F 89% 30.20 in 5.0 mi Calm Calm - N/A   Clear
8:52 PM 30.2 °F - 27.7 °F 90% 30.20 in 4.0 mi Calm Calm - N/A   Clear
9:12 PM 29.3 °F - 26.8 °F 90% 30.22 in 4.0 mi Calm Calm - N/A   Clear
9:32 PM 29.8 °F - 27.3 °F 90% 30.22 in 5.0 mi Calm Calm - N/A   Clear
9:52 PM 28.9 °F - 26.2 °F 90% 30.22 in 5.0 mi Calm Calm - N/A   Clear
10:12 PM 29.3 °F - 27.0 °F 91% 30.20 in 5.0 mi Calm Calm - N/A   Clear
10:32 PM 28.4 °F - 25.9 °F 90% 30.20 in 5.0 mi Calm Calm - N/A   Clear
10:52 PM 28.2 °F - 25.5 °F 90% 30.20 in 5.0 mi Calm Calm - N/A   Clear
11:12 PM 28.4 °F - 26.1 °F 91% 30.20 in 5.0 mi Calm Calm - N/A   Clear
11:32 PM 27.5 °F - 25.2 °F 91% 30.20 in 5.0 mi Calm Calm - N/A   Clear
11:52 PM 27.5 °F - 24.8 °F 90% 30.20 in 7.0 mi Calm Calm - N/A   Clear